EHI
5 4 3 3 4 6 8 9 12 20 25 23 20 18 17 16 14 12 8 5 4 3 4 4 3 1 0 0 0 1 2 2 1 1 3 2 1 0 1 3 4 3 1
3 3 2 2 3 4 5 5 7 11 14 15 15 14 13 11 11 9 7 5 4 3 4 4 3 1 0 0 0 0 1 1 1 2 2 2 1 0 1 3 4 2 1
1 1 0 1 2 2 2 2 3 3 3 4 7 8 7 6 6 5 5 5 4 3 3 3 2 0 0 0 0 0 0 0 1 2 1 1 1 0 0 2 2 1 0
0 0 0 0 0 0 1 1 1 1 1 0 2 3 2 2 2 2 2 3 2 2 2 2 1 0 0 0 0 0 0 0 1 1 1 0 1 0 0 0 0 0 0
0 0 0 0 0 0 0 0 0 0 0 0 0 0 0 0 0 0 0 1 1 0 1 1 0 0 0 0 0 0 0 0 0 0 0 0 0 0 0 0 0 0 0
0 0 0 0 0 0 0 0 0 0 0 0 0 0 0 0 0 0 0 0 0 0 0 0 0 0 0 0 0 0 0 0 0 0 0 0 0 0 0 0 0 0 0
0 0 0 0 0 0 0 0 0 0 0 0 0 0 0 0 0 0 0 0 0 0 0 0 0 0 0 0 0 0 0 0 0 0 0 0 0 0 0 0 0 0 0
0 0 0 0 0 0 0 0 0 0 0 0 0 0 0 0 0 0 0 0 0 0 0 0 0 0 0 0 0 0 0 0 0 0 0 0 0 0 0 0 0 0 0
0 0 0 0 0 0 0 0 0 0 0 0 0 0 0 0 0 0 0 0 0 0 0 0 0 0 0 0 0 0 0 0 0 0 0 0 0 0 0 0 0 0 0
0 0 0 0 0 0 1 1 0 0 0 0 0 0 0 0 0 0 0 0 0 0 0 0 0 0 0 0 0 0 0 0 0 0 0 0 0 0 0 0 0 0 0
0 0 0 0 0 0 1 1 0 0 0 0 0 0 0 0 0 0 0 0 0 0 0 0 0 0 0 0 0 0 0 0 0 0 0 0 0 0 0 0 0 0 0
0 0 0 0 0 0 1 1 0 0 0 0 0 0 0 0 0 0 0 0 0 0 0 0 0 0 0 0 0 0 0 0 0 0 0 0 0 0 0 0 0 0 0
0 0 0 0 0 0 0 0 0 0 0 0 0 0 0 0 0 0 0 0 0 0 0 0 0 0 0 0 0 0 0 0 0 0 0 0 0 0 0 0 0 0 0
0 0 0 0 0 0 0 0 0 0 0 0 0 0 0 0 0 0 0 0 0 0 0 0 0 0 0 0 0 0 0 0 0 0 0 0 0 0 0 0 0 0 0
0 0 0 0 0 0 0 0 0 0 0 0 0 0 0 0 0 0 0 0 0 0 0 0 0 0 0 0 0 0 0 0 0 0 0 0 0 0 0 0 0 0 0
0 0 0 0 0 0 0 0 0 0 0 0 0 0 0 0 0 0 0 0 0 0 0 0 0 0 0 0 0 0 0 0 0 0 0 0 0 0 0 0 0 0 0
0 0 0 0 0 0 0 0 0 0 0 0 0 0 0 0 0 0 0 0 0 0 0 0 0 0 0 0 0 0 0 0 0 0 0 0 0 0 0 0 0 0 0
0 0 0 0 0 0 0 0 0 0 0 0 0 0 0 0 0 0 0 0 0 0 0 0 0 0 0 0 0 0 0 0 0 0 0 0 0 0 0 0 0 0 0
0 0 0 0 0 0 0 0 0 0 0 0 0 0 0 0 0 0 0 0 0 0 0 0 0 0 0 0 0 0 0 0 0 0 0 0 0 0 0 0 0 0 0
0 0 0 0 0 0 0 0 0 0 0 0 0 0 0 0 0 0 0 0 0 0 0 0 0 0 0 0 0 0 0 0 0 0 0 0 0 0 0 0 0 0 0
0 0 0 0 0 0 0 0 0 0 0 0 0 0 0 0 0 0 0 0 0 0 0 0 0 0 0 0 0 0 0 0 0 0 0 0 0 0 0 0 0 0 0
0 0 0 0 0 0 0 0 0 0 0 0 0 0 0 0 0 0 0 0 0 0 0 0 0 0 0 0 0 0 0 0 0 0 0 0 0 0 0 0 0 0 0
0 0 0 0 0 0 0 0 0 0 0 0 0 0 0 0 0 0 0 0 0 0 0 0 0 0 0 0 0 0 0 0 0 0 0 0 0 0 0 0 0 0 0
0 0 0 0 0 0 0 0 0 0 0 0 0 0 0 0 0 0 0 0 0 0 0 0 0 0 0 0 0 0 0 0 0 0 0 0 0 0 0 0 0 0 0
0 0 0 0 0 0 0 0 0 0 0 0 0 0 0 0 0 0 0 0 0 0 0 0 0 0 0 0 0 0 0 0 0 0 0 0 0 0 0 0 0 0 0
0 0 0 0 0 0 0 0 0 0 0 0 0 0 0 0 0 0 0 0 0 0 0 0 0 0 0 0 0 0 0 0 0 0 0 0 0 0 0 0 0 0 0
Wind_Speed
5 5 6 5 6 6 5 6 7 8 8 8 8 8 8 8 7 6 7 7 6 6 6 6 6 6 5 5 5 5 5 4 5 3 2 1 1 3 4 5 6 6 6
6 6 6 6 6 6 7 7 7 7 8 8 8 8 9 9 7 7 8 7 6 6 6 6 6 6 6 5 5 5 5 4 4 4 2 1 2 4 5 6 7 7 7
8 7 7 7 7 7 7 8 8 8 8 8 8 8 9 9 8 8 8 7 6 6 6 6 6 6 6 5 5 5 4 4 3 4 2 1 2 3 5 6 8 6 8
8 8 8 8 8 8 9 8 8 8 8 8 8 8 9 9 9 8 7 6 6 5 5 5 5 5 5 5 4 4 4 3 3 4 4 3 3 4 5 6 6 5 6
8 8 8 8 8 8 9 9 9 9 10 8 7 8 8 9 8 7 6 7 5 5 4 3 4 3 3 4 4 3 3 3 4 5 5 4 4 5 5 4 7 6 5
8 9 9 9 9 8 8 8 8 8 8 7 7 9 9 9 7 5 5 5 4 4 3 2 2 1 1 0 1 2 3 5 5 5 5 6 6 6 5 6 7 7 4
9 9 9 9 10 9 10 9 8 8 7 8 8 8 9 7 8 7 7 5 5 4 3 2 2 1 1 2 4 4 3 3 4 5 7 6 7 7 7 7 6 6 5
9 10 9 9 9 8 7 7 7 7 7 7 8 9 8 9 8 7 7 6 4 3 3 2 1 1 1 3 4 5 5 4 3 4 6 6 6 6 6 7 8 7 5
11 10 9 9 9 8 8 7 7 7 8 8 9 9 8 7 7 7 7 5 3 3 3 3 3 3 3 4 5 6 7 6 9 11 11 10 11 10 7 6 7 7 6
12 10 10 9 9 9 9 8 8 7 8 9 9 7 7 7 6 8 8 4 3 3 3 4 5 5 5 4 5 7 7 6 8 9 9 9 9 8 8 5 5 6 6
11 10 10 9 9 9 9 8 7 8 9 9 9 8 7 6 6 7 8 5 3 3 4 4 4 7 7 5 6 6 8 7 7 8 7 7 6 5 5 5 4 4 5
11 11 11 10 12 12 8 7 7 7 8 8 8 8 6 4 3 5 7 7 3 2 3 4 6 9 8 7 6 8 10 8 5 5 6 6 6 6 5 5 6 6 6
12 12 11 11 10 10 9 9 8 7 7 7 6 5 3 2 2 4 6 6 5 2 2 7 10 11 9 7 8 9 7 5 5 5 6 6 6 6 6 5 6 6 6
13 11 10 10 10 9 7 7 6 6 6 5 4 3 2 1 2 2 3 4 5 3 4 9 11 9 6 7 7 5 3 3 5 6 6 7 6 5 5 5 4 4 5
12 11 10 10 9 8 7 6 6 5 5 5 4 2 1 1 1 2 3 3 4 4 6 6 6 5 5 6 5 5 4 4 5 5 6 7 6 5 5 4 4 4 5
11 10 8 7 7 7 7 6 6 8 8 7 6 3 1 2 5 4 4 4 6 8 6 6 6 6 6 6 6 5 5 5 5 5 6 5 5 5 5 4 4 5 5
11 9 7 7 7 7 6 6 5 5 7 8 7 6 4 6 6 6 6 6 7 7 5 5 6 6 5 6 5 5 5 5 5 5 5 5 5 5 4 4 4 4 5
10 10 9 7 7 7 6 6 5 5 4 4 5 8 8 8 8 8 8 7 5 5 4 5 5 5 5 5 6 6 6 5 5 5 5 5 5 4 4 4 4 5 5
8 6 6 6 6 6 6 5 5 5 4 3 2 4 6 7 7 7 9 5 6 7 6 5 5 5 5 5 6 6 6 5 5 5 4 5 4 4 4 4 5 5 4
6 10 8 6 5 5 5 4 4 3 3 3 3 4 6 6 5 6 6 6 6 6 6 6 5 5 5 5 6 5 6 6 6 5 4 4 4 4 5 6 5 4 3
5 5 7 6 5 4 4 3 3 3 3 3 3 5 9 7 7 8 8 7 7 7 7 6 6 6 5 5 5 6 7 6 5 5 5 4 4 4 4 4 4 4 5
4 4 3 3 3 3 3 2 3 3 3 4 4 6 9 6 7 7 8 8 7 6 6 5 6 6 5 5 6 6 6 6 5 5 5 5 4 4 4 4 4 4 4
4 3 2 2 2 2 3 3 2 3 3 4 6 7 7 6 7 8 8 8 6 5 5 5 6 7 6 5 5 5 6 6 6 6 5 5 4 4 4 4 4 5 4
4 3 2 1 1 1 1 1 2 2 3 4 6 6 7 6 7 8 8 6 6 5 5 5 6 8 9 7 6 6 5 6 7 6 6 5 5 4 4 4 4 4 4
3 2 2 2 2 1 1 2 2 3 3 4 5 6 6 6 7 7 6 6 6 6 6 6 5 7 10 10 8 7 8 9 7 6 5 4 5 5 4 4 3 4 4
4 3 2 2 1 1 1 2 3 3 4 5 5 6 6 6 7 7 6 6 6 6 6 5 6 8 10 9 10 12 10 10 8 6 4 3 3 3 4 3 4 4 4
Wind_Direction
319 313 313 311 312 314 312 315 317 313 309 303 297 290 279 268 257 250 254 258 258 262 267 267 267 270 269 269 265 261 254 248 253 269 284 252 154 126 113 109 113 112 109
306 302 299 301 303 303 303 303 300 300 302 301 297 291 283 276 265 260 261 262 260 261 264 270 274 276 269 265 262 258 252 240 229 229 249 227 159 135 124 118 115 110 107
295 290 289 291 293 292 289 288 289 290 293 296 295 293 289 284 275 264 262 262 263 263 266 268 274 277 275 270 262 254 245 234 206 191 196 186 135 130 119 113 106 105 107
284 284 282 281 281 282 282 279 279 282 285 286 288 290 289 286 279 269 263 261 259 259 262 269 275 275 274 274 266 251 229 206 187 173 165 158 141 131 123 125 116 108 110
288 284 280 276 274 275 278 280 279 277 282 284 290 289 286 282 277 279 267 260 258 261 262 269 278 287 285 275 260 238 209 194 180 167 162 156 150 144 135 134 127 117 101
281 283 284 282 280 278 279 280 281 281 284 292 294 294 289 289 300 296 279 270 256 253 252 262 259 252 290 269 179 186 201 190 181 171 164 162 157 145 135 141 136 132 122
283 281 279 279 279 278 284 290 290 293 294 293 291 290 287 284 280 260 252 253 245 238 233 245 253 184 147 128 107 99 96 126 165 169 157 158 151 148 141 140 136 130 126
283 282 283 282 283 284 284 285 289 291 289 287 285 281 280 279 269 245 240 246 238 222 211 211 214 159 142 134 126 104 90 78 111 132 128 125 125 130 135 133 128 115 107
286 283 283 283 285 286 286 286 288 286 285 281 280 274 273 272 249 230 228 241 235 214 186 162 152 130 109 124 126 115 102 88 78 91 101 103 105 107 121 127 132 130 127
290 287 284 282 282 283 282 280 282 282 280 278 274 272 276 273 242 222 222 233 225 203 166 137 122 121 116 117 125 120 117 116 114 109 103 101 105 101 98 110 126 130 131
287 284 281 277 276 273 269 266 270 274 277 275 275 274 270 264 237 216 212 227 210 189 172 152 134 128 123 116 115 116 120 121 117 116 112 109 106 100 88 75 76 118 125
288 286 284 280 280 281 274 271 270 271 275 274 267 267 264 251 216 210 205 213 214 176 177 153 141 140 135 132 122 124 124 121 117 116 115 114 109 100 92 89 84 85 95
288 286 285 284 279 276 272 272 270 266 265 269 269 266 258 231 164 171 191 190 191 180 160 140 139 139 133 130 133 135 134 129 124 120 115 109 107 109 108 100 94 90 88
288 286 284 283 280 277 271 269 267 267 266 265 262 276 284 223 150 152 167 161 154 146 132 130 131 136 135 133 143 152 159 147 136 127 122 118 117 120 123 127 122 118 104
293 288 286 282 278 274 270 262 264 260 258 264 266 262 280 297 143 152 155 160 153 149 140 136 138 147 153 152 161 171 168 149 133 124 123 129 138 143 145 147 140 133 126
287 284 281 278 276 274 272 273 256 246 247 246 235 239 236 147 150 155 155 139 137 148 150 148 151 163 164 158 160 156 150 142 139 136 136 143 145 143 139 141 142 137 134
280 279 276 274 272 268 266 261 262 253 239 229 221 212 199 163 160 162 156 144 152 158 167 164 165 172 172 161 158 153 143 136 135 135 136 137 133 134 140 143 139 132 127
280 276 272 267 266 266 265 260 255 246 244 229 209 194 180 175 175 169 155 144 159 185 199 181 175 178 179 160 157 146 138 136 133 133 134 135 137 140 141 138 131 128 128
277 270 267 265 261 261 261 259 254 246 237 224 184 158 166 163 160 160 161 176 181 193 200 190 177 178 176 153 142 139 141 141 140 137 136 139 142 143 142 135 124 126 130
272 267 266 266 261 252 250 248 238 228 219 208 189 163 151 156 161 161 185 197 195 194 195 186 172 165 155 141 140 143 142 137 142 143 142 146 147 144 136 133 141 150 147
277 273 260 259 261 260 259 249 230 217 205 194 177 166 165 172 170 174 185 197 199 196 190 177 160 149 147 145 144 148 146 145 150 151 148 152 150 141 141 148 154 147 136
285 275 266 256 256 254 251 230 213 205 197 182 156 156 174 178 172 179 188 197 200 194 172 160 157 156 160 155 152 153 152 152 153 152 150 151 149 149 154 156 148 141 146
299 288 274 261 257 245 236 212 198 190 186 177 163 161 177 185 178 180 188 189 184 176 159 160 164 161 158 152 151 158 160 155 155 153 153 155 156 156 152 149 149 150 152
326 322 320 320 295 262 176 154 152 155 163 163 155 162 173 177 174 175 178 175 175 165 159 169 169 162 158 154 160 169 164 151 153 156 160 158 156 153 151 153 162 160 153
344 352 358 353 355 32 77 117 140 163 168 162 158 160 162 165 168 168 169 171 167 161 167 169 162 163 164 167 167 153 139 140 145 151 155 159 159 157 159 163 165 171 173
1 8 15 22 30 47 84 134 146 146 144 144 144 147 154 160 163 164 167 163 161 163 166 164 167 165 162 166 153 134 132 133 133 136 151 159 162 167 169 175 185 191 192